Location: Holbach
(51.5399°N, 10.6036°E)
Time: 07:21:57
(UTC+00:00)

Cosmos 1048 Rocket - Pass Details

Date: 18 September 2020
Orbit: 742 x 792 km, 74.0° (Epoch: 21 October)

Event Time Altitude Azimuth Distance (km) Brightness Sun altitude
Rises 19:23:07 0° 333° (NNW) 3,256 8.2 -18.5°
Reaches altitude 10° 19:25:31 10° 330° (NNW) 2,332 7.3 -18.9°
Maximum altitude 19:30:45 65° 250° (WSW) 859 4.3 -19.6°
Enters shadow 19:34:10 22° 174° (S) 1,655 5.4 -20.0°
